We konden geen weer-waarchuwingen ophalen. Ga rechtstreeks naar de Meteoalarm site : www.meteoalarm.eu en controleer daar .



Onweer radar Meer informatie blitzortung!


Regen radar Meer informatie rain snow radar


Bezoek onze andere website:

Template documentation
and downloads

And another site



15 daagse weersverwachting Monza (IT)

  • Overzicht
  • Per uur
  • 15 dagen
  • Extra
  • Vergelijk
  • Kaarten
  • Dagkaart
  • Meer »
  • Info
  • Statistieken
  • Directe link
    Temp 6h Neerslag Wind  
 06:27     20:27    Daglengte: 14:00 Vandaag
14:00
28°
 
1
20:00
23°
1.9 mm
2
 06:29     20:25    Daglengte: 13:56 Morgen
02:00
22°
 
4
08:00
21°
19.3 mm
3
warningclass
14:00
24°
13.0 mm
2
warningclass
20:00
21°
14.2 mm
2
warningclass
 06:30     20:24    Daglengte: 13:54 Vrijdag 19 Aug
02:00
20°
24.0 mm
2
warningclass
08:00
20°
4.3 mm
1
14:00
24°
23.6 mm
2
20:00
25°
 
3
 06:31     20:22    Daglengte: 13:51 Zaterdag 20 Aug
02:00
21°
 
1
08:00
20°
 
2
Locatie info
Region: Lombardia
Latitude: 45.5841°N
Longitude: 9.2710°E
171 masl
Postcode: 20900
Temp/Neerslag /Baro Onweer/Dauwpunt
    Temp Baro 1h Neerslag Dauwpunt Wind UV Bewolking  
 06:27     20:27    Daglengte: 14:00 Vandaag
13:00
28°
1013.1 hPa   19.6°
2
Windvlaag: 2.8 m/s
53%
14:00
28°
1012.9 hPa
17%
21.4°
1
Windvlaag: 2.6 m/s
59%
15:00
29°
1012.4 hPa
26%
19.6°
1
Windvlaag: 4.1 m/s
55%
16:00
28°
1012.1 hPa
17%
21.9°
2
Windvlaag: 4.4 m/s
66%
17:00
27°
1012.2 hPa
80%
21.6°
2
Windvlaag: 4.1 m/s
73%
18:00
26°
1011.6 hPa 0.6 mm
82%
20.8°
4
Windvlaag: -1.8 m/s
83% warningclass
19:00
24°
1011.8 hPa 1.3 mm
82%
21.1°
2
Windvlaag: -2.4 m/s
80% warningclass
20:00
23°
1011.6 hPa
82%
20.4°
2
Windvlaag: -1.8 m/s
77%
21:00
23°
1012.1 hPa
82%
19.8°
3
Windvlaag: 1.3 m/s
38%
22:00
22°
1012.2 hPa
71%
18.7°
3
Windvlaag: -2 m/s
22%
23:00
22°
1012.3 hPa
17%
17.9°
3
Windvlaag: -1.7 m/s
32%
 06:29     20:25    Daglengte: 13:56 Morgen
00:00
22°
1012.1 hPa
15%
17.6°
3
Windvlaag: -2.4 m/s
19%
01:00
22°
1012.1 hPa
70%
18.0°
2
Windvlaag: -2.8 m/s
86%
02:00
22°
1011.8 hPa
82%
17.8°
4
Windvlaag: -3.6 m/s
85%
03:00
22°
1011.7 hPa 2.7 mm
82%
17.8°
3
Windvlaag: -4.2 m/s
84% warningclass
04:00
21°
1011.7 hPa 3.6 mm
82%
18.5°
2
Windvlaag: -3.7 m/s
85% warningclass
05:00
21°
1011.5 hPa 4.4 mm
82%
18.5°
1
Windvlaag: -0.8 m/s
78% warningclass
06:00
21°
1011.1 hPa 3.8 mm
82%
18.4°
2
Windvlaag: 0.3 m/s
84% warningclass
07:00
21°
1011.6 hPa 2.8 mm
82%
18.1°
3
Windvlaag: -0.3 m/s
86% warningclass
08:00
21°
1011.3 hPa 2.1 mm
82%
18.0°
3
Windvlaag: -4.1 m/s
84% warningclass
09:00
21°
1011.4 hPa 3.8 mm
82%
18.0°
3
Windvlaag: -3.9 m/s
86% warningclass
10:00
21°
1011.5 hPa 3.7 mm
82%
18.2°
2
Windvlaag: -3.2 m/s
86% warningclass
11:00
21°
1011.2 hPa 2.9 mm
82%
17.9°
3
Windvlaag: -3.4 m/s
82% warningclass
12:00
23°
1011.2 hPa 2.7 mm
82%
19.3°
2
Windvlaag: -0.3 m/s
77%
13:00
24°
1010.8 hPa
81%
18.6°
2
Windvlaag: -0.9 m/s
77% warningclass
14:00
24°
1010.7 hPa
82%
18.4°
2
Windvlaag: 4.4 m/s
83% warningclass
15:00
24°
1010.5 hPa
82%
20.6°
2
Windvlaag: 5.1 m/s
77% warningclass
16:00
24°
1010.0 hPa 4.1 mm
82%
21.2°
1
Windvlaag: 6.8 m/s
86%
17:00
23°
1009.6 hPa
82%
20.9°
2
Windvlaag: 5.2 m/s
80% warningclass
18:00
23°
1009.4 hPa
80%
20.5°
1
Windvlaag: 2.3 m/s
69%
19:00
23°
1009.6 hPa 4.6 mm
82%
19.7°
2
Windvlaag: 5.6 m/s
75% warningclass
20:00
21°
1009.7 hPa 5.5 mm
82%
18.9°
2
Windvlaag: 6.3 m/s
85% warningclass
21:00
21°
1009.9 hPa 5.7 mm
82%
18.4°
2
Windvlaag: 2.4 m/s
86%
22:00
20°
1010.2 hPa 4.7 mm
82%
18.3°
2
Windvlaag: -2.6 m/s
86% warningclass
23:00
20°
1010.2 hPa 4.8 mm
82%
18.3°
1
Windvlaag: -2.1 m/s
84% warningclass
 06:30     20:24    Daglengte: 13:54 Vrijdag 19 Aug
00:00
20°
1009.8 hPa 4.1 mm
82%
18.5°
2
Windvlaag: -1.4 m/s
85%
01:00
20°
1009.4 hPa 4.6 mm
82%
18.4°
2
Windvlaag: -1.6 m/s
83% warningclass
02:00
20°
1009.1 hPa
82%
17.5°
2
Windvlaag: -1.5 m/s
82% warningclass
03:00
20°
1008.9 hPa
82%
17.4°
1
Windvlaag: -0.9 m/s
84%
04:00
19°
1008.6 hPa
36%
17.7°
1
Windvlaag: -0.2 m/s
86%
05:00
19°
1008.2 hPa
75%
17.7°
1
Windvlaag: 1.1 m/s
85%
06:00
20°
1008.3 hPa
77%
17.1°
1
Windvlaag: 3 m/s
75%
07:00
19°
1008.9 hPa
80%
17.3°
2
Windvlaag: 3.4 m/s
86%
08:00
20°
1009.3 hPa 4.3 mm
82%
17.0°
1
Windvlaag: 2.1 m/s
78%
09:00
20°
1009.5 hPa 4.5 mm
77%
15.9°
2
Windvlaag: -1.8 m/s
80%
10:00
20°
1009.6 hPa
76%
16.8°
1
Windvlaag: -2 m/s
68%
11:00
21°
1010.0 hPa 6.4 mm
98%
13.5°
1
Windvlaag: -1.3 m/s
85%
12:00
23°
1009.8 hPa 6.4 mm
99%
12.9°
2
Windvlaag: 3.2 m/s
72%
13:00
23°
1009.8 hPa 6.4 mm
97%
12.1°
2
Windvlaag: 3.5 m/s
77%
14:00
24°
1010.0 hPa
39%
11.8°
2
Windvlaag: 4.2 m/s
65%
15:00
25°
1009.9 hPa
25%
11.7°
2
Windvlaag: 4.9 m/s
81%
16:00
26°
1009.8 hPa
22%
11.7°
1
Windvlaag: 4.4 m/s
87%
17:00
24°
1010.0 hPa
21%
17.0°
2
Windvlaag: 4.2 m/s
44%
18:00
25°
1009.9 hPa
21%
15.3°
2
Windvlaag: 2.9 m/s
27%
19:00
26°
1010.0 hPa
21%
12.9°
1
Windvlaag: 3.4 m/s
35%
20:00
25°
1010.2 hPa
21%
9.0°
3
Windvlaag: 4.7 m/s
18%
21:00
24°
1010.9 hPa
21%
8.0°
2
Windvlaag: 5.5 m/s
13%
22:00
23°
1011.3 hPa
21%
7.2°
2
Windvlaag: 3.9 m/s
23%
23:00
23°
1011.7 hPa
21%
5.8°
2
Windvlaag: 1.9 m/s
17%
 06:31     20:22    Daglengte: 13:51 Zaterdag 20 Aug
00:00
22°
1011.9 hPa
21%
5.7°
2
Windvlaag: 1.8 m/s
10%
01:00
22°
1011.9 hPa
21%
6.5°
1
Windvlaag: 1.6 m/s
8%
02:00
21°
1011.9 hPa
21%
7.0°
1
Windvlaag: 1.6 m/s
2%
03:00
21°
1012.0 hPa
21%
6.9°
2
Windvlaag: 1.1 m/s
12%
04:00
20°
1011.9 hPa
21%
6.5°
2
Windvlaag: 0.8 m/s
7%
05:00
20°
1011.8 hPa
21%
5.6°
2
Windvlaag: 0.9 m/s
2%
06:00
20°
1011.7 hPa
21%
6.1°
2
Windvlaag: 11.5 m/s
22%
07:00
20°
1012.3 hPa
21%
5.9°
2
Windvlaag: 10.5 m/s
22%
08:00
20°
1012.8 hPa
21%
5.1°
2
Windvlaag: 12.2 m/s
0%
09:00
22°
1013.0 hPa
21%
6.5°
1
Windvlaag: 10.4 m/s
0%
10:00
24°
1013.0 hPa
21%
7.0°
2
Windvlaag: 6.9 m/s
0%
11:00
26°
Voelt als: 26.1°
1013.1 hPa
21%
7.9°
1
Windvlaag: 6.7 m/s
1%
12:00
28°
Voelt als: 27.3°
1012.9 hPa
21%
8.5°
1
Windvlaag: 7.5 m/s
1%
Temp/Neerslag /Baro Onweer/Dauwpunt
    Temp Baro Neerslag Dauwpunt Wind Bewolking  
 06:27     20:27    Daglengte: 14:00 Vandaag
14:00
28°
1012.9 hPa   21.4°
1
59%
17:00
27°
1012.2 hPa   21.6°
2
73%
20:00
23°
1011.6 hPa 1.9 mm 20.4°
2
77%
23:00
22°
1012.3 hPa   17.9°
3
32%
 06:29     20:25    Daglengte: 13:56 Morgen
02:00
22°
1011.8 hPa   17.8°
4
85%
05:00
21°
1011.5 hPa 10.7 mm 18.5°
1
78% warningclass
08:00
21°
1011.3 hPa 8.6 mm 18.0°
3
84% warningclass
11:00
21°
1011.2 hPa 10.3 mm 17.9°
3
82% warningclass
14:00
24°
1010.7 hPa 2.7 mm 18.4°
2
83% warningclass
17:00
23°
1009.6 hPa 4.1 mm 20.9°
2
80% warningclass
20:00
21°
1009.7 hPa 10.1 mm 18.9°
2
85% warningclass
23:00
20°
1010.2 hPa 15.3 mm 18.3°
1
84% warningclass
 06:30     20:24    Daglengte: 13:54 Vrijdag 19 Aug
02:00
20°
1009.1 hPa 8.7 mm 17.5°
2
82% warningclass
05:00
19°
1008.2 hPa   17.7°
1
85%
08:00
20°
1009.3 hPa 4.3 mm 17.0°
1
78%
11:00
21°
1010.0 hPa 10.9 mm 13.5°
1
85%
14:00
24°
1010.0 hPa 12.8 mm 11.8°
2
65%
17:00
24°
1010.0 hPa   17.0°
2
44%
20:00
25°
1010.2 hPa   9.0°
3
18%
23:00
23°
1011.7 hPa   5.8°
2
17%
 06:31     20:22    Daglengte: 13:51 Zaterdag 20 Aug
02:00
21°
1011.9 hPa   7.0°
1
2%
05:00
20°
1011.8 hPa   5.6°
2
2%
08:00
20°
1012.8 hPa   5.1°
2
0%
11:00
26°
Voelt als: 26.1°
1013.1 hPa   7.9°
1
1%
14:00
31°
Voelt als: 29.3°
1012.3 hPa   9.1°
2
15%
17:00
30°
Voelt als: 29.4°
1012.0 hPa 32.5 mm 13.4°
2
0%
20:00
26°
1012.6 hPa 32.5 mm 16.2°
1
0%
23:00
24°
1013.8 hPa 32.5 mm 14.9°
1
0%
 06:32     20:20    Daglengte: 13:48 Zondag 21 Aug
02:00
22°
1014.0 hPa 32.5 mm 14.7°
1
0%
05:00
20°
1014.1 hPa 32.5 mm 13.3°
1
0%
08:00
21°
1014.7 hPa 32.5 mm 13.8°
1
0%
11:00
26°
1014.3 hPa 32.5 mm 14.5°
1
0%
14:00
29°
Voelt als: 29.3°
1012.7 hPa 32.5 mm 15.2°
2
1%
17:00
30°
Voelt als: 29.6°
1011.0 hPa 32.5 mm 14.5°
2
1%
20:00
26°
1010.4 hPa 32.5 mm 15.8°
1
1%
23:00
23°
1011.0 hPa 32.6 mm 15.4°
2
0%
 06:33     20:18    Daglengte: 13:45 Maandag 22 Aug
02:00
20°
1011.1 hPa 33.7 mm 17.6°
2
1%
05:00
20°
1011.5 hPa 34.3 mm 17.4°
1
1%
08:00
19°
1013.0 hPa 35.3 mm 17.6°
1
1%
11:00
24°
1013.1 hPa 35.5 mm 16.3°
2
1%
14:00
28°
Voelt als: 28.1°
1012.1 hPa 36.0 mm 14.8°
3
0%
17:00
28°
Voelt als: 27.8°
1011.0 hPa 36.5 mm 13.3°
3
1%
20:00
25°
1011.5 hPa 36.6 mm 14.8°
2
1%
23:00
23°
1012.8 hPa 36.7 mm 13.9°
2
1%
 06:35     20:17    Daglengte: 13:42 Dinsdag 23 Aug
02:00
22°
1012.9 hPa 36.7 mm 14.1°
1
1%
05:00
22°
1013.1 hPa 36.7 mm 13.9°
0
1%
08:00
22°
1014.3 hPa 36.7 mm 14.3°
0
1%
11:00
24°
1014.5 hPa 36.7 mm 14.9°
1
1%
14:00
29°
Voelt als: 28.5°
1013.3 hPa 36.7 mm 13.3°
1
1%
17:00
30°
Voelt als: 29.0°
1012.2 hPa 36.7 mm 13.4°
1
0%
20:00
26°
1012.6 hPa 36.7 mm 14.3°
1
0%
23:00
24°
1014.0 hPa 36.7 mm 13.8°
2
1%
 06:36     20:15    Daglengte: 13:39 Woensdag 24 Aug
02:00
22°
1014.4 hPa 36.7 mm 13.7°
1
1%
05:00
21°
1014.0 hPa 36.7 mm 13.3°
1
1%
08:00
22°
1014.3 hPa 36.7 mm 14.0°
0
1%
11:00
28°
Voelt als: 27.8°
1014.3 hPa   14.5°
1
0%
14:00
31°
Voelt als: 30.0°
1013.2 hPa 73.4 mm 12.4°
2
0%
20:00
28°
Voelt als: 27.3°
1012.3 hPa 73.4 mm 12.7°
1
0%
 06:37     20:13    Daglengte: 13:36 Donderdag 25 Aug
02:00
23°
1013.8 hPa 73.4 mm 12.9°
2
0%
08:00
23°
1014.9 hPa 73.6 mm 14.1°
1
0%
14:00
27°
1015.1 hPa 73.6 mm 15.2°
2
1%
20:00
27°
1013.8 hPa 73.6 mm 14.9°
1
0%
 06:38     20:11    Daglengte: 13:33 Vrijdag 26 Aug
02:00
24°
1015.4 hPa 73.6 mm 14.4°
1
1%
08:00
23°
1016.2 hPa 73.6 mm 15.0°
0
1%
14:00
33°
Voelt als: 32.3°
1014.8 hPa 73.6 mm 13.7°
2
1%
20:00
30°
Voelt als: 29.0°
1014.2 hPa 73.6 mm 13.4°
1
1%
 06:40     20:10    Daglengte: 13:30 Zaterdag 27 Aug
02:00
24°
1016.2 hPa 73.7 mm 15.0°
1
1%
08:00
23°
1018.6 hPa 0.5 mm 13.0°
1
47%
14:00
31°
Voelt als: 29.9°
1017.0 hPa 0.2 mm 11.5°
2
33%
20:00
28°
Voelt als: 27.2°
1017.3 hPa 0.5 mm 10.9°
1
34%
 06:41     20:08    Daglengte: 13:27 Zondag 28 Aug
02:00
23°
1019.5 hPa 1.4 mm 12.5°
2
42%
08:00
23°
1019.9 hPa 0.7 mm 12.8°
1
33%
14:00
31°
Voelt als: 30.1°
1018.6 hPa 0.2 mm 11.6°
2
30%
20:00
28°
Voelt als: 27.3°
1018.6 hPa 0.3 mm 11.3°
1
25%
 06:42     20:06    Daglengte: 13:24 Maandag 29 Aug
02:00
23°
1020.5 hPa 0.4 mm 12.8°
1
41%
08:00
22°
1020.7 hPa 0.7 mm 13.3°
1
34%
14:00
31°
Voelt als: 30.0°
1019.1 hPa 0.2 mm 12.0°
2
17%
20:00
28°
Voelt als: 27.2°
1018.7 hPa 0.3 mm 10.9°
0
20%
 06:43     20:04    Daglengte: 13:21 Dinsdag 30 Aug
02:00
23°
1020.3 hPa 0.8 mm 12.5°
1
36%
08:00
22°
1020.2 hPa 0.6 mm 13.0°
1
37%
14:00
31°
Voelt als: 30.0°
1018.2 hPa 0.4 mm 12.3°
2
28%
20:00
28°
Voelt als: 27.1°
1017.7 hPa 0.4 mm 11.2°
0
21%
 06:44     20:02    Daglengte: 13:18 Woensdag 31 Aug
02:00
23°
1019.3 hPa 0.8 mm 12.6°
1
41%
08:00
22°
1018.8 hPa 0.5 mm 12.6°
1
37%
14:00
31°
Voelt als: 29.5°
1016.9 hPa 0.3 mm 12.0°
1
28%
20:00
27°
Voelt als: 26.8°
1016.5 hPa 0.2 mm 11.5°
0
33%
 06:46     20:00    Daglengte: 13:14 Donderdag 01 Sep
02:00
22°
1018.1 hPa 1.3 mm 12.4°
1
37%
08:00
22°
1018.0 hPa 0.6 mm 12.5°
1
38%
  CAPE Lifted Index Hail Supercell Tornado SRH 3km CL BTM PRES CL TOP PRES Swiss DWD icon SMHI TS
 06:27     20:27    Daglengte: 14:00 Vandaag
13:00 408 J/kg -1.8 K 0 % 0 % 0 % 0 m²/s² 0 0 0.03 3
14:00 434 J/kg -2.4 K 0 % 0 % 0 % 0 m²/s² 0 0 -1.38 3
15:00 664 J/kg -2.8 K 0 % 0 % 0 % 0 m²/s² 0 0 -1.78 3
16:00 801 J/kg -2.6 K 0 % 0 % 0 % 0 m²/s² 0 0 -1.67 3
17:00 918 J/kg -3.3 K 0 % 0 % 0 % 0 m²/s² 0 0 -3.09 3
18:00 882 J/kg -2.7 K 0 % 0 % 0 % 0 m²/s² 0 0 -2.43 80
19:00 1052 J/kg -3.1 K 0 % 0 % 0 % 0 m²/s² 0 0 -2.32 95
20:00 0 J/kg -3.7 K 0 % 0 % 0 % 0 m²/s² 0 0 -2.05 80
21:00 0 J/kg -3.1 K 0 % 0 % 0 % 0 m²/s² 0 0 -1.81 3
22:00 440 J/kg -2.7 K 0 % 0 % 0 % 0 m²/s² 0 0 -1.53 2
23:00 662 J/kg -3.7 K 0 % 0 % 0 % 0 m²/s² 0 0 -2.47 3
 06:29     20:25    Daglengte: 13:56 Morgen
00:00 411 J/kg -4.0 K 0 % 0 % 0 % 0 m²/s² 0 0 -2.44 3
01:00 482 J/kg -4.3 K 0 % 0 % 0 % 0 m²/s² 0 0 -3.22 3
02:00 892 J/kg -5.1 K 0 % 0 % 0 % 0 m²/s² 0 0 -4.08 3
03:00 976 J/kg -4.9 K 0 % 0 % 0 % 0 m²/s² 0 0 -4.09 80
04:00 923 J/kg -5.2 K 0 % 0 % 0 % 0 m²/s² 0 0 -4.72 80
05:00 923 J/kg -5.4 K 0 % 0 % 0 % 0 m²/s² 0 0 -5.37 95
06:00 825 J/kg -6.0 K 0 % 0 % 0 % 0 m²/s² 0 0 -5.61 95
07:00 612 J/kg -4.3 K 0 % 0 % 0 % 0 m²/s² 0 0 -4.18 80
08:00 987 J/kg -4.9 K 0 % 0 % 0 % 0 m²/s² 0 0 -4.9 80
09:00 919 J/kg -3.7 K 0 % 0 % 0 % 0 m²/s² 0 0 -3.61 80
10:00 598 J/kg -3.0 K 0 % 0 % 0 % 0 m²/s² 0 0 -3 95
11:00 16 J/kg -0.6 K 0 % 0 % 0 % 0 m²/s² 0 0 1.41 95
12:00 0 J/kg 1.7 K 0 % 0 % 0 % 0 m²/s² 0 0 3.71 80
13:00 0 J/kg 2.3 K 0 % 0 % 0 % 0 m²/s² 0 0 3.95 95
14:00 0 J/kg 0.7 K 0 % 0 % 0 % 0 m²/s² 0 0 1.63 95
15:00 1 J/kg 1.1 K 0 % 0 % 0 % 0 m²/s² 0 0 1.22 95
16:00 0 J/kg 1.6 K 0 % 0 % 0 % 0 m²/s² 0 0 2.05 80
17:00 0 J/kg 1.3 K 0 % 0 % 0 % 0 m²/s² 0 0 3.82 95
18:00 0 J/kg 0.3 K 0 % 0 % 0 % 0 m²/s² 0 0 3.12 80
19:00 465 J/kg -2.0 K 0 % 0 % 0 % 0 m²/s² 0 0 1.93 95
20:00 694 J/kg -2.7 K 0 % 0 % 0 % 0 m²/s² 0 0 1.62 95
21:00 793 J/kg -2.9 K 0 % 0 % 0 % 0 m²/s² 0 0 1.18 3
22:00 988 J/kg -3.8 K 0 % 0 % 0 % 0 m²/s² 0 0 1.18 95
23:00 999 J/kg -4.3 K 0 % 0 % 0 % 0 m²/s² 0 0 1.22 95
 06:30     20:24    Daglengte: 13:54 Vrijdag 19 Aug
00:00 957 J/kg -4.4 K 0 % 0 % 0 % 0 m²/s² 0 0 0.55 80
01:00 848 J/kg -4.9 K 0 % 0 % 0 % 0 m²/s² 0 0 0.44 95
02:00 758 J/kg -5.2 K 0 % 0 % 0 % 0 m²/s² 0 0 -0.4 95
03:00 687 J/kg -5.3 K 0 % 0 % 0 % 0 m²/s² 0 0 -0.74 81
04:00 601 J/kg -5.4 K 0 % 0 % 0 % 0 m²/s² 0 0 -1.38 3
05:00 456 J/kg -5.3 K 0 % 0 % 0 % 0 m²/s² 0 0 -1.07 3
06:00 296 J/kg -5.1 K 0 % 0 % 0 % 0 m²/s² 0 0 -1.41 80
07:00 343 J/kg -5.0 K 0 % 0 % 0 % 0 m²/s² 0 0 -1.49 3
08:00 427 J/kg -4.2 K 0 % 0 % 0 % 0 m²/s² 0 0 -1.05 80
09:00 705 J/kg -4.3 K 0 % 0 % 0 % 0 m²/s² 0 0 -1.33 80
10:00 832 J/kg -4.1 K 0 % 0 % 0 % 0 m²/s² 0 0 -1.28 3
11:00 913 J/kg -4.5 K 0 % 0 % 0 % 0 m²/s² 0 0 -1.35 61
12:00 995 J/kg -4.8 K 0 % 0 % 0 % 0 m²/s² 0 0 -0.81 61
13:00 1030 J/kg -5.0 K 0 % 0 % 0 % 0 m²/s² 0 0 -1.31 61
14:00 903 J/kg -4.2 K 0 % 0 % 0 % 0 m²/s² 0 0 -0.87 3
15:00 839 J/kg -4.1 K 0 % 0 % 0 % 0 m²/s² 0 0 -2.06 3
16:00 738 J/kg -3.8 K 0 % 0 % 0 % 0 m²/s² 0 0 -2.81 3
17:00 585 J/kg -2.9 K 0 % 0 % 0 % 0 m²/s² 0 0 -2.03 3
18:00 375 J/kg -2.5 K 0 % 0 % 0 % 0 m²/s² 0 0 -0.94 3
19:00 181 J/kg -1.6 K 0 % 0 % 0 % 0 m²/s² 0 0 0.2 3
20:00 0 J/kg 0.8 K 0 % 0 % 0 % 0 m²/s² 0 0 2.72 3
21:00 0 J/kg 2.9 K 0 % 0 % 0 % 0 m²/s² 0 0 4.01 1
22:00 0 J/kg 3.7 K 0 % 0 % 0 % 0 m²/s² 0 0 4.24 1
23:00 0 J/kg 3.6 K 0 % 0 % 0 % 0 m²/s² 0 0 4.23 1
 06:31     20:22    Daglengte: 13:51 Zaterdag 20 Aug
00:00 0 J/kg 3.0 K 0 % 0 % 0 % 0 m²/s² 0 0 3.81 0
01:00 0 J/kg 2.5 K 0 % 0 % 0 % 0 m²/s² 0 0 3.37 0
02:00 0 J/kg 2.8 K 0 % 0 % 0 % 0 m²/s² 0 0 3.76 1
03:00 0 J/kg 2.9 K 0 % 0 % 0 % 0 m²/s² 0 0 4.01 0
04:00 0 J/kg 3.2 K 0 % 0 % 0 % 0 m²/s² 0 0 4.7 0
05:00 0 J/kg 3.3 K 0 % 0 % 0 % 0 m²/s² 0 0 5.28 0
06:00 0 J/kg 3.0 K 0 % 0 % 0 % 0 m²/s² 0 0 5.55 45
07:00 0 J/kg 2.6 K 0 % 0 % 0 % 0 m²/s² 0 0 5.15 45
08:00 0 J/kg 2.7 K 0 % 0 % 0 % 0 m²/s² 0 0 5.19 45
09:00 0 J/kg 2.5 K 0 % 0 % 0 % 0 m²/s² 0 0 4.48 1
10:00 0 J/kg 1.7 K 0 % 0 % 0 % 0 m²/s² 0 0 3.44 1
11:00 5 J/kg 0.9 K 0 % 0 % 0 % 0 m²/s² 0 0 2.28 0
12:00 87 J/kg 0.1 K 0 % 0 % 0 % 0 m²/s² 0 0 1.42 0
Temp Baro Wind Neerslag
  EWN Forecast EWN WRFDA DWD ICON FMI HIRLAM MET Norway GFS
 06:27     20:27    Daglengte: 14:00 Vandaag
14:00 28.1° 1012.9 hPa 1.5 m/s 0.0 mm 29.1° 1011.8 hPa 2.9 m/s 0.0 mm 29.4° 1012.6 hPa 1.1 m/s -2.0 mm 27.2° 1013.2 hPa 1.7 m/s 0.0 mm 30.3° 1011.8 hPa 1.9 m/s
17:00 27.3° 1012.2 hPa 1.8 m/s 0.0 mm 31.2° 1008.9 hPa 4.5 m/s 0.3 mm 29.6° 1011.9 hPa 1.8 m/s 0.1 mm 25.8° 1013.1 hPa 0.6 m/s 0.0 mm 28.6° 1011.4 hPa 3.4 m/s
20:00 23.5° 1011.6 hPa 2.4 m/s 1.9 mm 24.1° 1010.1 hPa 6.2 m/s 6.6 mm 23.5° 1012.8 hPa 1.7 m/s 2.1 mm 23.5° 1011.0 hPa 2.1 m/s 0.0 mm 20.9° 1011.9 hPa 2.4 m/s
23:00 22.2° 1012.3 hPa 2.9 m/s 0.0 mm 25.2° 1011.0 hPa 1.0 m/s 8.4 mm 22.2° 1013.1 hPa 1.4 m/s 0.0 mm 21.9° 1010.8 hPa 3.7 m/s 0.0 mm 20.7° 1012.7 hPa 0.9 m/s
 06:29     20:25    Daglengte: 13:56 Morgen
02:00 22.1° 1011.8 hPa 3.5 m/s 0.0 mm 24.9° 1010.2 hPa 1.7 m/s 8.4 mm 22.0° 1013.1 hPa 1.1 m/s 0.0 mm 21.9° 1009.1 hPa 5.2 m/s 0.0 mm 19.9° 1012.2 hPa 1.7 m/s
05:00 21.3° 1011.5 hPa 0.9 m/s 10.7 mm 23.5° 1011.2 hPa 0.7 m/s 9.2 mm 21.1° 1012.6 hPa 0.2 m/s 2.3 mm 21.1° 1008.6 hPa 2.9 m/s 0.0 mm 19.9° 1011.1 hPa 2.6 m/s
08:00 20.7° 1011.3 hPa 2.9 m/s 8.6 mm 22.1° 1011.7 hPa 2.0 m/s 12.6 mm 20.3° 1012.2 hPa 2.8 m/s 6.6 mm 22.1° 1008.7 hPa 4.6 m/s 0.0 mm 19.3° 1012.6 hPa 1.2 m/s
11:00 21.2° 1011.2 hPa 2.7 m/s 10.3 mm 23.5° 1010.9 hPa 3.2 m/s 25.7 mm 20.4° 1011.6 hPa 0.9 m/s 7.1 mm 22.3° 1009.3 hPa 3.0 m/s 0.0 mm 19.8° 1012.9 hPa 1.2 m/s
14:00 24.2° 1010.7 hPa 2.3 m/s 2.7 mm 28.8° 1007.1 hPa 1.3 m/s 25.7 mm 21.1° 1011.6 hPa 0.5 m/s 4.1 mm 25.5° 1008.6 hPa 4.1 m/s 0.0 mm 21.9° 1011.8 hPa 0.7 m/s
17:00 23.4° 1009.6 hPa 2.0 m/s 4.1 mm 22.5° 1006.4 hPa 3.8 m/s 45.1 mm 21.1° 1010.5 hPa 0.8 m/s 4.8 mm 25.1° 1006.7 hPa 2.3 m/s 0.0 mm 20.5° 1010.7 hPa 2.5 m/s
20:00 21.3° 1009.7 hPa 1.9 m/s 10.1 mm 23.0° 1007.9 hPa 4.1 m/s 55.1 mm 20.2° 1010.3 hPa 1.2 m/s 5.7 mm 22.6° 1007.4 hPa 1.6 m/s 0.0 mm 21.2° 1008.8 hPa 0.3 m/s
23:00 20.3° 1010.2 hPa 1.5 m/s 15.3 mm 21.8° 1008.9 hPa 3.6 m/s 55.2 mm 20.1° 1010.3 hPa 1.0 m/s 4.7 mm 21.3° 1009.3 hPa 2.8 m/s 0.0 mm 19.7° 1009.0 hPa 1.4 m/s
 06:30     20:24    Daglengte: 13:54 Vrijdag 19 Aug
02:00 19.9° 1009.1 hPa 2.1 m/s 8.7 mm 21.1° 1008.1 hPa 1.9 m/s 55.2 mm 19.5° 1009.3 hPa 0.6 m/s 4.2 mm 21.0° 1008.3 hPa 2.9 m/s 0.0 mm 17.5° 1009.5 hPa 1.9 m/s
05:00 19.4° 1008.2 hPa 0.7 m/s 0.0 mm 20.7° 1007.1 hPa 1.5 m/s 55.5 mm 19.3° 1008.2 hPa 0.6 m/s 2.3 mm 19.6° 1007.7 hPa 0.6 m/s 0.0 mm 17.7° 1009.6 hPa 0.2 m/s
08:00 19.7° 1009.3 hPa 1.0 m/s 4.3 mm 21.2° 1008.0 hPa 1.4 m/s 55.9 mm 19.5° 1009.6 hPa 0.6 m/s 0.6 mm 20.4° 1008.3 hPa 2.3 m/s 0.0 mm 18.2° 1010.4 hPa 1.9 m/s
11:00 21.5° 1010.0 hPa 0.8 m/s 10.9 mm 23.8° 1009.0 hPa 1.6 m/s 56.2 mm 21.2° 1010.0 hPa 0.7 m/s 0.4 mm 19.9° 1011.3 hPa 2.5 m/s
14:00 24.5° 1010.0 hPa 1.7 m/s 12.8 mm 27.4° 1008.8 hPa 1.6 m/s 56.2 mm 24.3° 1010.0 hPa 1.1 m/s 0.5 mm 23.7° 1010.4 hPa 2.5 m/s
17:00 24.4° 1010.0 hPa 2.3 m/s 0.0 mm 24.1° 1010.0 hPa 5.5 m/s 58.2 mm 26.2° 1009.5 hPa 1.0 m/s 0.0 mm 25.9° 1010.0 hPa 2.5 m/s
20:00 25.2° 1010.2 hPa 2.5 m/s 0.0 mm 27.3° 1010.0 hPa 4.8 m/s 61.5 mm 25.6° 1010.0 hPa 1.2 m/s 0.0 mm 22.2° 1010.3 hPa 2.2 m/s
23:00 22.5° 1011.7 hPa 1.6 m/s 0.0 mm 25.8° 1011.1 hPa 5.8 m/s 61.5 mm 22.6° 1011.5 hPa 1.0 m/s 0.0 mm 19.7° 1012.0 hPa 2.0 m/s
 06:31     20:22    Daglengte: 13:51 Zaterdag 20 Aug
02:00 21.2° 1011.9 hPa 1.4 m/s 0.0 mm 25.3° 1011.8 hPa 4.7 m/s 61.5 mm 21.1° 1011.6 hPa 0.5 m/s 0.0 mm 18.6° 1012.3 hPa 2.2 m/s
05:00 19.7° 1011.8 hPa 1.9 m/s 0.0 mm 24.7° 1012.1 hPa 6.4 m/s 61.5 mm 19.3° 1011.6 hPa 0.5 m/s 0.0 mm 17.8° 1012.7 hPa 1.4 m/s
08:00 20.4° 1012.8 hPa 1.7 m/s 0.0 mm 25.4° 1013.0 hPa 6.3 m/s 61.5 mm 19.1° 1012.8 hPa 0.5 m/s 0.0 mm 19.1° 1013.5 hPa 1.3 m/s
11:00 26.5° 1013.1 hPa 1.3 m/s 0.0 mm 29.4° 1013.0 hPa 4.3 m/s 61.5 mm 25.7° 1013.1 hPa 0.6 m/s 0.0 mm 25.9° 1013.4 hPa 1.1 m/s
14:00 30.9° 1012.3 hPa 1.6 m/s 0.0 mm 32.2° 1012.4 hPa 4.9 m/s 61.5 mm 30.6° 1012.3 hPa 0.8 m/s 0.0 mm 29.8° 1012.9 hPa 2.1 m/s
17:00 30.2° 1012.0 hPa 2.2 m/s 32.5 mm 30.2° 1012.0 hPa 2.2 m/s 32.5 mm
20:00 25.8° 1012.6 hPa 0.6 m/s 32.5 mm 25.8° 1012.6 hPa 0.6 m/s 32.5 mm
23:00 23.6° 1013.8 hPa 1.3 m/s 32.5 mm 23.6° 1013.8 hPa 1.3 m/s 32.5 mm
 06:32     20:20    Daglengte: 13:48 Zondag 21 Aug
02:00 21.7° 1014.0 hPa 1.4 m/s 32.5 mm 21.7° 1014.0 hPa 1.4 m/s 32.5 mm
05:00 20.3° 1014.1 hPa 1.4 m/s 32.5 mm 20.3° 1014.1 hPa 1.4 m/s 32.5 mm
08:00 21.0° 1014.7 hPa 1.0 m/s 32.5 mm 21.0° 1014.7 hPa 1.0 m/s 32.5 mm
11:00 26.4° 1014.3 hPa 1.1 m/s 32.5 mm 26.4° 1014.3 hPa 1.1 m/s 32.5 mm
14:00 29.5° 1012.7 hPa 1.8 m/s 32.5 mm 29.5° 1012.7 hPa 1.8 m/s 32.5 mm
17:00 30.1° 1011.0 hPa 1.6 m/s 32.5 mm 30.1° 1011.0 hPa 1.6 m/s 32.5 mm
20:00 26.4° 1010.4 hPa 0.8 m/s 32.5 mm 26.4° 1010.4 hPa 0.8 m/s 32.5 mm
23:00 23.2° 1011.0 hPa 1.7 m/s 32.6 mm 23.2° 1011.0 hPa 1.7 m/s 32.6 mm
 06:33     20:18    Daglengte: 13:45 Maandag 22 Aug
02:00 20.0° 1011.1 hPa 1.8 m/s 33.7 mm 20.0° 1011.1 hPa 1.8 m/s 33.7 mm
05:00 20.0° 1011.5 hPa 0.6 m/s 34.3 mm 20.0° 1011.5 hPa 0.6 m/s 34.3 mm
08:00 19.3° 1013.0 hPa 1.5 m/s 35.3 mm 19.3° 1013.0 hPa 1.5 m/s 35.3 mm
11:00 24.5° 1013.1 hPa 2.0 m/s 35.5 mm 24.5° 1013.1 hPa 2.0 m/s 35.5 mm
14:00 28.2° 1012.1 hPa 2.6 m/s 36.0 mm 28.2° 1012.1 hPa 2.6 m/s 36.0 mm
17:00 28.2° 1011.0 hPa 3.4 m/s 36.5 mm 28.2° 1011.0 hPa 3.4 m/s 36.5 mm
20:00 25.0° 1011.5 hPa 2.3 m/s 36.6 mm 25.0° 1011.5 hPa 2.3 m/s 36.6 mm
23:00 22.7° 1012.8 hPa 2.1 m/s 36.7 mm 22.7° 1012.8 hPa 2.1 m/s 36.7 mm
 06:35     20:17    Daglengte: 13:42 Dinsdag 23 Aug
02:00 21.9° 1012.9 hPa 1.4 m/s 36.7 mm 21.9° 1012.9 hPa 1.4 m/s 36.7 mm
05:00 21.6° 1013.1 hPa 0.3 m/s 36.7 mm 21.6° 1013.1 hPa 0.3 m/s 36.7 mm
08:00 21.6° 1014.3 hPa 0.1 m/s 36.7 mm 21.6° 1014.3 hPa 0.1 m/s 36.7 mm
11:00 23.6° 1014.5 hPa 1.1 m/s 36.7 mm 23.6° 1014.5 hPa 1.1 m/s 36.7 mm
14:00 29.1° 1013.3 hPa 1.0 m/s 36.7 mm 29.1° 1013.3 hPa 1.0 m/s 36.7 mm
17:00 29.7° 1012.2 hPa 1.3 m/s 36.7 mm 29.7° 1012.2 hPa 1.3 m/s 36.7 mm
20:00 26.1° 1012.6 hPa 1.1 m/s 36.7 mm 26.1° 1012.6 hPa 1.1 m/s 36.7 mm
23:00 23.9° 1014.0 hPa 1.6 m/s 36.7 mm 23.9° 1014.0 hPa 1.6 m/s 36.7 mm
 06:36     20:15    Daglengte: 13:39 Woensdag 24 Aug
02:00 22.3° 1014.4 hPa 1.3 m/s 36.7 mm 22.3° 1014.4 hPa 1.3 m/s 36.7 mm
05:00 21.3° 1014.0 hPa 1.1 m/s 36.7 mm 21.3° 1014.0 hPa 1.1 m/s 36.7 mm
08:00 22.3° 1014.3 hPa 0.3 m/s 36.7 mm 22.3° 1014.3 hPa 0.3 m/s 36.7 mm
11:00 27.9° 1014.3 hPa 1.4 m/s 36.7 mm 27.9° 1014.3 hPa 1.4 m/s 36.7 mm
14:00 31.1° 1013.2 hPa 2.1 m/s 36.7 mm 31.1° 1013.2 hPa 2.1 m/s 36.7 mm
20:00 27.6° 1012.3 hPa 1.1 m/s 36.7 mm 27.6° 1012.3 hPa 1.1 m/s 36.7 mm
 06:37     20:13    Daglengte: 13:36 Donderdag 25 Aug
02:00 23.3° 1013.8 hPa 1.6 m/s 36.7 mm 23.3° 1013.8 hPa 1.6 m/s 36.7 mm
08:00 23.0° 1014.9 hPa 0.8 m/s 36.8 mm 23.0° 1014.9 hPa 0.8 m/s 36.8 mm
14:00 27.1° 1015.1 hPa 1.6 m/s 36.8 mm 27.1° 1015.1 hPa 1.6 m/s 36.8 mm
20:00 27.2° 1013.8 hPa 1.5 m/s 36.8 mm 27.2° 1013.8 hPa 1.5 m/s 36.8 mm
 06:38     20:11    Daglengte: 13:33 Vrijdag 26 Aug
02:00 23.6° 1015.4 hPa 1.2 m/s 36.8 mm 23.6° 1015.4 hPa 1.2 m/s 36.8 mm
08:00 23.1° 1016.2 hPa 0.4 m/s 36.8 mm 23.1° 1016.2 hPa 0.4 m/s 36.8 mm
14:00 33.1° 1014.8 hPa 2.1 m/s 36.8 mm 33.1° 1014.8 hPa 2.1 m/s 36.8 mm
20:00 29.7° 1014.2 hPa 1.5 m/s 36.8 mm 29.7° 1014.2 hPa 1.5 m/s 36.8 mm
 06:40     20:10    Daglengte: 13:30 Zaterdag 27 Aug
02:00 24.2° 1016.2 hPa 0.8 m/s 36.9 mm 24.2° 1016.2 hPa 0.8 m/s 36.9 mm
08:00 22.7° 1018.6 hPa 0.9 m/s 0.5 mm
14:00 31.2° 1017.0 hPa 1.6 m/s 0.2 mm
20:00 27.9° 1017.3 hPa 0.7 m/s 0.5 mm
 06:41     20:08    Daglengte: 13:27 Zondag 28 Aug
02:00 23.2° 1019.5 hPa 1.7 m/s 1.4 mm
08:00 22.5° 1019.9 hPa 0.8 m/s 0.7 mm
14:00 31.3° 1018.6 hPa 1.7 m/s 0.2 mm
20:00 27.8° 1018.6 hPa 0.5 m/s 0.3 mm
 06:42     20:06    Daglengte: 13:24 Maandag 29 Aug
02:00 23.1° 1020.5 hPa 1.3 m/s 0.4 mm
08:00 22.4° 1020.7 hPa 0.7 m/s 0.7 mm
14:00 31.2° 1019.1 hPa 1.5 m/s 0.2 mm
20:00 27.9° 1018.7 hPa 0.3 m/s 0.3 mm
 06:43     20:04    Daglengte: 13:21 Dinsdag 30 Aug
02:00 23.1° 1020.3 hPa 1.2 m/s 0.8 mm
08:00 22.4° 1020.2 hPa 0.7 m/s 0.6 mm
14:00 31.0° 1018.2 hPa 1.6 m/s 0.4 mm
20:00 27.6° 1017.7 hPa 0.2 m/s 0.4 mm
 06:44     20:02    Daglengte: 13:18 Woensdag 31 Aug
02:00 23.0° 1019.3 hPa 1.3 m/s 0.8 mm
08:00 22.0° 1018.8 hPa 0.8 m/s 0.5 mm
14:00 30.6° 1016.9 hPa 1.4 m/s 0.3 mm
20:00 27.1° 1016.5 hPa 0.3 m/s 0.2 mm
 06:46     20:00    Daglengte: 13:14 Donderdag 01 Sep
02:00 22.4° 1018.1 hPa 1.4 m/s 1.3 mm
08:00 21.6° 1018.0 hPa 0.9 m/s 0.6 mm
FMI Hirlam - 7.5 km EWN WRFDA - 12 km DWD ICON - 7 km GFS - 25 km Basiskaart






























































Updatetijd (Europe/Amsterdam) Resolutie Lengte Stap
FMI Hirlam 07:15, 13:15, 19:15, 01:15 7.5 km 49h 1h
EWN WRFDA 10:15, 16:15, 22:15, 04:15 12 km 73h 1h
DWD ICON 11:45, 17:45, 23:45, 05:45 7 km 75h 1h
GFS 08:15, 14:15, 20:15, 02:15 25 km 237h 3h
30+ mm
25-30 mm
20-25 mm
15-20 mm
10-15 mm
6-10 mm
4-6 mm
2-4 mm
1-2 mm
0.5-1 mm
0.2-0.5 mm
0.1-0.2 mm
30+ mm
25-30 mm
20-25 mm
15-20 mm
10-15 mm
6-10 mm
4-6 mm
2-4 mm
1-2 mm
0.5-1 mm
0.2-0.5 mm
0.1-0.2 mm
Sneeuwval
Natte sneeuw
Hagel
Vorst
30+ mm
25-30 mm
20-25 mm
15-20 mm
10-15 mm
6-10 mm
4-6 mm
2-4 mm
1-2 mm
0.5-1 mm
0.2-0.5 mm
0.1-0.2 mm
Sneeuwval
Natte sneeuw
Hagel
Vorst
Onweer
50 mm
40 mm
30 mm
26 mm
22 mm
18 mm
14 mm
10 mm
9 mm
8 mm
7 mm
6 mm
5 mm
4.5 mm
4 mm
3.5 mm
3 mm
2.5 mm
2 mm
1.5 mm
1 mm
0.8 mm
0.6 mm
0.4 mm
0.2 mm
0.05 mm
35°
30°
25°
20°
15°
10°
-5°
-10°
-15°
-20°
-25°
-30°
-35°
33> m/s
29 m/s
25 m/s
21 m/s
17 m/s
14 m/s
11 m/s
8 m/s
5 m/s
3 m/s
0 m/s
2600 J/kg
2400 J/kg
2200 J/kg
2000 J/kg
1800 J/kg
1600 J/kg
1400 J/kg
1200 J/kg
1000 J/kg
800 J/kg
600 J/kg
400 J/kg
200 J/kg
70 dBZ
65 dBZ
60 dBZ
55 dBZ
50 dBZ
45 dBZ
40 dBZ
35 dBZ
30 dBZ
25 dBZ
20 dBZ
15 dBZ
10 dBZ
5 dBZ
-1 K
-2 K
-3 K
-4 K
-5 K
-6 K
-7 K
-8 K
-9 K
950 m²/s²
900 m²/s²
850 m²/s&